Location: Smoky Mountain Stargaze
(35.4252°N, 83.3329°W)
Time: 13:12:12
(UTC-04:00)

Amateur Radio Satellites - All Passes

Search period start: 26 July 2014 12:42
Search period end: 27 July 2014 12:42
Location: Smoky Mountain Stargaze, 35.4252°N, 83.3329°W

Satellite Date Start Highest point End Downlink Frequencies (MHz)
Time Altitude Azimuth
Oscar 11 26 Jul 12:48:05 12:48:45 10° 295° (WNW) 12:49:24 145.825 FM, Beacon 2401.500 USB
Sapphire 26 Jul 12:48:25 12:52:56 28° 253° (WSW) 12:57:26 437.095 MHz 1200 baud AX-25 AFSK
Oscar 16 26 Jul 12:54:17 12:55:27 11° 62° (ENE) 12:56:37 437.025 USB, Beacon 2401.1428
FUNcube-1 26 Jul 12:59:00 13:02:00 19° 291° (WNW) 13:05:00 145.950 - 145.970 MHz USB
SO-50 26 Jul 13:11:18 13:15:05 28° 112° (ESE) 13:18:56 436.795 FM
JAS-1B 26 Jul 13:17:04 13:20:16 12° 49° (NE) 13:23:32 435.800 - 435.900 CW/SSB
PCSat 26 Jul 13:24:27 13:26:18 12° 258° (WSW) 13:28:09 145.825 MHz
AO-27 26 Jul 13:27:56 13:28:39 10° 61° (ENE) 13:29:22 436.795 MHz FM
Uribyol 2 26 Jul 13:28:55 13:30:24 11° 62° (ENE) 13:31:53 436.500 FM
Oscar 19 26 Jul 14:01:18 14:06:13 50° 73° (ENE) 14:11:10 437.125 CW, 437.150 USB
Oscar 16 26 Jul 14:28:57 14:34:04 81° 257° (WSW) 14:39:13 437.025 USB, Beacon 2401.1428
KITSAT 1 26 Jul 14:30:12 14:32:32 11° 32° (NNE) 14:34:51 435.175 FM
AO-Echo 26 Jul 14:39:54 14:45:02 57° 74° (ENE) 14:50:16 ?
ITAMSAT 1 26 Jul 14:43:49 14:48:56 61° 74° (ENE) 14:54:05 435.822 SSB
RS-15 26 Jul 14:43:55 14:55:09 83° 117° (ESE) 15:06:06 29.354 - 29.394 USB, Beacon 29.352 USB
TMSAT-1 26 Jul 14:47:58 14:51:33 19° 65° (ENE) 14:55:08 436.925 FM
SO-50 26 Jul 14:51:48 14:55:34 26° 308° (NW) 14:59:24 436.795 FM
JAS-1B 26 Jul 15:00:10 15:08:28 58° 69° (ENE) 15:17:53 435.800 - 435.900 CW/SSB
AO-7 26 Jul 15:01:50 15:05:29 14° 51° (NE) 15:09:08 29.400 - 29.500 MHz
AO-27 26 Jul 15:02:09 15:07:23 87° 256° (WSW) 15:12:38 436.795 MHz FM
Uribyol 2 26 Jul 15:03:56 15:09:09 80° 257° (WSW) 15:14:22 436.500 FM
Gurwin Techsat 1B 26 Jul 15:08:52 15:13:48 41° 71° (ENE) 15:18:46 435.225 FM
UOSAT-12 26 Jul 15:27:21 15:31:46 51° 115° (ESE) 15:36:17 437.025 FM, 437.400 FM
Oscar 19 26 Jul 15:42:47 15:45:48 16° 267° (W) 15:48:51 437.125 CW, 437.150 USB
AO-Echo 26 Jul 16:21:07 16:24:06 15° 268° (W) 16:27:07 ?
KITSAT 1 26 Jul 16:22:26 16:30:12 48° 56° (NE) 16:37:54 435.175 FM
TMSAT-1 26 Jul 16:25:57 16:31:03 49° 260° (W) 16:36:11 436.925 FM
ITAMSAT 1 26 Jul 16:26:15 16:28:47 14° 268° (W) 16:31:18 435.822 SSB
Uosat F 26 Jul 16:34:55 16:39:41 45° 72° (ENE) 16:44:29 435.120 FM
AO-7 26 Jul 16:48:29 16:56:45 70° 70° (ENE) 17:05:04 29.400 - 29.500 MHz
Gurwin Techsat 1B 26 Jul 16:49:58 16:53:53 21° 266° (W) 16:57:50 435.225 FM
JAS-1B 26 Jul 16:52:00 16:59:18 32° 268° (W) 17:07:31 435.800 - 435.900 CW/SSB
RS-15 26 Jul 16:59:42 17:08:46 28° 320° (NW) 17:17:49 29.354 - 29.394 USB, Beacon 29.352 USB
UOSAT-12 26 Jul 17:09:06 17:12:13 18° 312° (NW) 17:15:22 437.025 FM, 437.400 FM
OPAL 26 Jul 17:19:34 17:24:30 50° 102° (ESE) 17:29:28 ?
Saudisat 1A 26 Jul 17:36:19 17:40:14 31° 54° (NE) 17:44:08 436.775 MHz
Hamsat 26 Jul 17:37:40 17:38:27 10° 65° (ENE) 17:39:14 145.90 MHz
JAS-2 26 Jul 18:10:00 18:16:57 36° 68° (ENE) 18:23:36 435.800 - 435.900 CW/SSB, 435.910 FM
Uosat F 26 Jul 18:15:18 18:18:38 18° 266° (W) 18:22:00 435.120 FM
KITSAT 1 26 Jul 18:18:15 18:25:17 34° 253° (WSW) 18:32:18 435.175 FM
AO-7 26 Jul 18:44:00 18:50:04 22° 265° (W) 18:56:11 29.400 - 29.500 MHz
OPAL 26 Jul 18:59:41 19:02:58 18° 297° (WNW) 19:06:16 ?
Hamsat 26 Jul 19:09:49 19:13:54 55° 260° (W) 19:18:01 145.90 MHz
Saudisat 1A 26 Jul 19:16:12 19:19:39 23° 249° (WSW) 19:23:04 436.775 MHz
RS-15 26 Jul 19:23:10 19:26:45 12° 355° (N) 19:30:20 29.354 - 29.394 USB, Beacon 29.352 USB
STRAND 1 26 Jul 19:38:42 19:43:09 30° 97° (E) 19:47:33 ?
SO-67 26 Jul 19:50:40 19:54:04 57° 76° (ENE) 19:57:29 435.3500 MHz FM
JAS-2 26 Jul 19:54:18 20:01:42 44° 262° (W) 20:08:53 435.800 - 435.900 CW/SSB, 435.910 FM
HO-68 26 Jul 20:27:14 20:32:22 22° 60° (ENE) 20:37:30 435.675 MHz FM
AO-40 26 Jul 21:13:17 04:33:05 44° 183° (S) 10:16:45 Beacon 2401.320
UKube-1 26 Jul 21:13:51 21:17:06 21° 68° (ENE) 21:20:21 145.840 MHz, 145.915 MHz
STRAND 1 26 Jul 21:17:56 21:22:12 28° 292° (WNW) 21:26:27 ?
MaSat-1 26 Jul 21:31:57 21:34:15 15° 100° (E) 21:36:45 437.345 MHz
RS-15 26 Jul 21:37:40 21:45:34 21° 33° (NNE) 21:53:34 29.354 - 29.394 USB, Beacon 29.352 USB
SO-50 26 Jul 21:46:18 21:48:59 15° 46° (NE) 21:51:41 436.795 FM
Oscar 11 26 Jul 22:01:09 22:04:58 32° 72° (ENE) 22:08:49 145.825 FM, Beacon 2401.500 USB
HO-68 26 Jul 22:12:18 22:19:25 67° 257° (WSW) 22:26:33 435.675 MHz FM
FUNcube-1 26 Jul 22:16:41 22:19:31 17° 69° (ENE) 22:22:19 145.950 - 145.970 MHz USB
UKube-1 26 Jul 22:49:16 22:53:05 30° 262° (W) 22:56:56 145.840 MHz, 145.915 MHz
Lituanica SAT-1 26 Jul 22:53:52 22:55:38 31° 134° (SE) 22:57:24 437.275 MHz beacon
MaSat-1 26 Jul 23:07:28 23:11:04 35° 300° (WNW) 23:15:16 437.345 MHz
SO-50 26 Jul 23:25:15 23:30:00 69° 243° (WSW) 23:34:48 436.795 FM
Oscar 11 26 Jul 23:38:17 23:41:12 18° 266° (W) 23:44:08 145.825 FM, Beacon 2401.500 USB
RS-15 26 Jul 23:49:08 00:00:13 73° 59° (ENE) 00:11:43 29.354 - 29.394 USB, Beacon 29.352 USB
FUNcube-1 26 Jul 23:51:38 23:55:39 35° 262° (W) 23:59:36 145.950 - 145.970 MHz USB
UOSAT-12 27 Jul 00:00:25 00:04:03 21° 50° (NE) 00:07:38 437.025 FM, 437.400 FM
ISS 27 Jul 00:29:20 00:32:32 48° 134° (SE) 00:35:47 145.800 FM
PCSat 27 Jul 00:36:28 00:39:16 14° 103° (ESE) 00:42:05 145.825 MHz
UOSAT-12 27 Jul 01:39:55 01:44:21 41° 246° (WSW) 01:48:41 437.025 FM, 437.400 FM
Sapphire 27 Jul 01:43:07 01:48:24 60° 113° (ESE) 01:53:43 437.095 MHz 1200 baud AX-25 AFSK
RS-15 27 Jul 02:02:54 02:11:34 27° 256° (WSW) 02:20:33 29.354 - 29.394 USB, Beacon 29.352 USB
ISS 27 Jul 02:07:01 02:09:26 18° 330° (NNW) 02:11:52 145.800 FM
Oscar 19 27 Jul 02:16:36 02:20:40 23° 95° (E) 02:24:44 437.125 CW, 437.150 USB
PCSat 27 Jul 02:16:44 02:22:04 63° 298° (WNW) 02:27:27 145.825 MHz
Oscar 16 27 Jul 02:43:52 02:48:50 46° 100° (E) 02:53:47 437.025 USB, Beacon 2401.1428
AO-Echo 27 Jul 02:51:26 02:55:23 23° 94° (E) 02:59:14 ?
JAS-1B 27 Jul 02:52:10 02:58:43 22° 88° (E) 03:04:36 435.800 - 435.900 CW/SSB
ITAMSAT 1 27 Jul 03:00:24 03:04:47 28° 96° (E) 03:09:08 435.822 SSB
AO-27 27 Jul 03:18:35 03:23:31 43° 99° (E) 03:28:24 436.795 MHz FM
Uribyol 2 27 Jul 03:20:00 03:24:58 47° 100° (E) 03:29:54 436.500 FM
Sapphire 27 Jul 03:28:32 03:32:13 18° 310° (NW) 03:35:55 437.095 MHz 1200 baud AX-25 AFSK
Gurwin Techsat 1B 27 Jul 03:28:52 03:32:50 21° 94° (E) 03:36:47 435.225 FM
Oscar 19 27 Jul 03:55:22 04:00:02 36° 290° (WNW) 04:04:43 437.125 CW, 437.150 USB
Oscar 16 27 Jul 04:24:17 04:27:48 19° 294° (WNW) 04:31:19 437.025 USB, Beacon 2401.1428
AO-Echo 27 Jul 04:29:39 04:34:11 34° 290° (WNW) 04:38:35 ?
OPAL 27 Jul 04:31:43 04:36:35 64° 72° (ENE) 04:41:29 ?
ITAMSAT 1 27 Jul 04:39:44 04:44:12 30° 291° (WNW) 04:48:39 435.822 SSB
JAS-1B 27 Jul 04:40:45 04:50:10 75° 288° (WNW) 04:58:09 435.800 - 435.900 CW/SSB
TMSAT-1 27 Jul 04:44:42 04:50:01 87° 103° (ESE) 04:55:18 436.925 FM
Uosat F 27 Jul 04:46:51 04:50:09 17° 94° (E) 04:53:25 435.120 FM
AO-7 27 Jul 04:54:33 05:01:21 27° 96° (E) 05:08:04 29.400 - 29.500 MHz
AO-27 27 Jul 04:58:59 05:02:41 20° 294° (WNW) 05:06:21 436.795 MHz FM
Uribyol 2 27 Jul 05:00:34 05:04:02 19° 295° (WNW) 05:07:31 436.500 FM
Gurwin Techsat 1B 27 Jul 05:07:58 05:12:54 41° 289° (WNW) 05:17:49 435.225 FM
OPAL 27 Jul 06:14:07 06:15:51 12° 266° (W) 06:17:35 ?
Uosat F 27 Jul 06:24:21 06:29:06 44° 288° (WNW) 06:33:50 435.120 FM
TMSAT-1 27 Jul 06:28:14 06:29:09 10° 299° (WNW) 06:30:04 436.925 FM
JAS-1B 27 Jul 06:33:46 06:38:47 16° 308° (NW) 06:43:32 435.800 - 435.900 CW/SSB
Lituanica SAT-1 27 Jul 06:38:17 06:40:11 74° 220° (SW) 06:42:04 437.275 MHz beacon
PANSAT 27 Jul 06:38:58 06:41:56 21° 168° (SSE) 06:44:54 not established
AO-7 27 Jul 06:46:20 06:54:27 58° 292° (WNW) 07:02:30 29.400 - 29.500 MHz
KITSAT 1 27 Jul 06:46:58 06:54:39 50° 110° (ESE) 07:02:22 435.175 FM
STRAND 1 27 Jul 06:51:43 06:56:14 32° 70° (ENE) 07:00:47 ?
Hamsat 27 Jul 06:58:42 07:02:33 31° 97° (E) 07:06:23 145.90 MHz
ISS 27 Jul 07:01:00 07:03:30 19° 30° (NNE) 07:05:59 145.800 FM
JAS-2 27 Jul 07:08:58 07:14:06 31° 95° (E) 07:18:48 435.800 - 435.900 CW/SSB, 435.910 FM
MaSat-1 27 Jul 07:28:33 07:33:07 28° 58° (ENE) 07:37:28 437.345 MHz
Saudisat 1A 27 Jul 07:41:20 07:44:02 16° 109° (ESE) 07:46:44 436.775 MHz
PANSAT 27 Jul 08:18:19 08:21:41 29° 180° (S) 08:25:03 not established
STRAND 1 27 Jul 08:31:10 08:35:23 26° 264° (W) 08:39:38 ?
Hamsat 27 Jul 08:35:14 08:38:16 19° 291° (WNW) 08:41:19 145.90 MHz
ISS 27 Jul 08:37:09 08:40:23 45° 226° (SW) 08:43:35 145.800 FM
KITSAT 1 27 Jul 08:42:57 08:50:13 35° 308° (NW) 08:57:31 435.175 FM
AO-7 27 Jul 08:43:56 08:45:27 11° 312° (NW) 08:46:58 29.400 - 29.500 MHz
SO-67 27 Jul 08:50:26 08:53:54 71° 283° (WNW) 08:57:21 435.3500 MHz FM
JAS-2 27 Jul 08:54:03 08:59:06 29° 294° (WNW) 09:03:44 435.800 - 435.900 CW/SSB, 435.910 FM
MaSat-1 27 Jul 09:05:46 09:10:28 33° 255° (WSW) 09:14:52 437.345 MHz
Saudisat 1A 27 Jul 09:19:02 09:23:14 43° 304° (NW) 09:27:28 436.775 MHz
HO-68 27 Jul 09:44:04 09:50:02 28° 96° (E) 09:55:57 435.675 MHz FM
PANSAT 27 Jul 09:58:30 10:01:25 21° 193° (SSW) 10:04:20 not established
Sapphire 27 Jul 10:34:37 10:39:08 26° 54° (NE) 10:43:37 437.095 MHz 1200 baud AX-25 AFSK
UKube-1 27 Jul 10:40:02 10:44:19 57° 101° (E) 10:48:35 145.840 MHz, 145.915 MHz
PCSat 27 Jul 11:07:44 11:13:03 53° 60° (ENE) 11:18:19 145.825 MHz
Oscar 11 27 Jul 11:27:17 11:31:38 79° 283° (WNW) 11:35:57 145.825 FM, Beacon 2401.500 USB
HO-68 27 Jul 11:31:06 11:37:52 48° 292° (WNW) 11:44:38 435.675 MHz FM
FUNcube-1 27 Jul 11:43:25 11:47:30 52° 100° (E) 11:51:37 145.950 - 145.970 MHz USB
Sapphire 27 Jul 12:17:38 12:22:38 39° 250° (WSW) 12:27:36 437.095 MHz 1200 baud AX-25 AFSK
UKube-1 27 Jul 12:18:36 12:20:00 11° 296° (WNW) 12:21:24 145.840 MHz, 145.915 MHz
